ZHANGHENG 1

导读

ZHANGHENG 1(张衡一号)是中国首颗地球物理场探测电磁监测试验卫星,也是中意航天合作成果。2018年2月2日于酒泉卫星发射中心发射入轨,运行于太阳同步轨道。卫星主要用于获取全球空间电磁场、电离层等离子体等科学数据,捕捉地震前兆电离层扰动,填补了我国全球地球物理场信息获取空白,是中国构建天空地一体化地震立体监测体系的重要里程碑,目前仍超期服役。

Basic Information
目录编号:
43194
目录名称:
ZHANGHENG 1
国际标识:
2018-015C
轨道中心:
EARTH
卫星名称:
ZHANGHENG 1
卫星全名:
--
卫星状态:
在轨 (已飞行3136 天)
发射日期:
2018-02-02 UTC
国别 :
中国 (CN)
星等 :
--
Orbit Information
数据来源 国际轨道数据 AOE轨道数据
星历时间 2026-09-04T07:01:59+0800
8小时前
查看轨道信息
2026-08-30T07:00:00+0800
5天前
查看轨道信息
半长轴 6882.434km 6880.646km
偏心率 0.0014502 0.0015756
轨道倾角 97.695° 97.694°
近地点辐角 8.635° 15.976°
升交点赤经 54.224° 49.116°
平近点角 351.513° 337.433°
近地点 494.316km 491.667km
远地点 514.278km 513.351km
周期 94.705分钟 94.668分钟
每日圈数 15.205117 15.211044
Detailed Information
使用方式:
暂无
2D Orbit Map
3D Orbit Map
Orbit Altitude Analysis Chart
Orbit Inclination Analysis Chart
Orbit Comprehensive Analysis Chart
View Comprehensive Chart
Conjunction Data List
Event ID Objects TCA Miss Dist (km) Collision Risk Probability Collision Risk Index (CRI) Action
CDM_260903-145804-319406-472121
2026-09-03T
14:58:50+0000
1.990 km
极远距离
2.933172E-6 低风险 0.44